Regional Weather Roundup
Issued by NWS

Home | Current Version | Previous Version | Graphics & Text | Print | Product List | Glossary On
Versions: 1 2 3 4 5 6 7 8 9 10 11 12 13 14 15 16 17 18 19 20 21 22 23 24 25 26 27 28 29 30 31 32 33 34 35 36 37 38 39 40 41 42 43 44 45 46 47 48 49 50
000
ASUS45 KTFX 281910
RWRMT
MONTANA REGIONAL WEATHER ROUNDUP
NATIONAL WEATHER SERVICE GREAT FALLS MT
100 PM MDT WED JUN 28 2017

NOTE: "FAIR" INDICATES FEW OR NO CLOUDS BELOW 12000 FEET WITH NO
SIGNIFICANT WEATHER AND/OR OBSTRUCTIONS TO VISIBILITY.

MTZ001>007-043-282000-
WEST OF THE DIVIDE

CITY           SKY/WX    TMP DP  RH WIND       PRES   REMARKS
KALISPELL      PTSUNNY   76  36  23 SW17G24   29.76F
MISSOULA       MOSUNNY   77  38  24 MISG      29.81F
BUTTE          CLOUDY    63  37  38 NW14      29.90S THUNDER
MULLAN PASS    MOSUNNY   60  38  43 VRB5      29.96S
ANACONDA         N/A     66  43  42 CALM      29.88R
DEER LODGE       N/A     68  36  30 NW17G25   29.87F
EUREKA           N/A     77  30  18 MISG      29.73F
HAMILTON         N/A     73  36  25 CALM      29.84S
$$

MTZ008-052>055-282000-
SOUTHWEST MONTANA

CITY           SKY/WX    TMP DP  RH WIND       PRES   REMARKS
BOZEMAN        LGT RAIN  65  50  58 CALM      29.84S
DILLON         PTSUNNY   65  44  46 SW14G22   29.86F
W YELLOWSTONE  CLOUDY    61  45  55 SW16G26   29.97F
ENNIS          SUNNY     72  41  33 W15       29.92F
THREE FORKS      N/A     71  47  42 CALM      29.84F
$$

MTZ009-010-012-014-046-048-049-054-282000-
EAST SLOPES AND CENTRAL MONTANA

CITY           SKY/WX    TMP DP  RH WIND       PRES   REMARKS
CUT BANK       MOSUNNY   76  26  15 W25G31    29.72F
GREAT FALLS    SUNNY     77  30  17 W24G31    29.75R
MALMSTROM AFB  SUNNY     76  30  18 W20G28    29.75S
HELENA         CLOUDY    77  30  17 W15G28    29.80F
CHOTEAU          N/A     73  32  21 W12G21    29.79F
$$

MTZ011-013-016-021-045-047-050-051-282000-
NORTH CENTRAL MONTANA

CITY           SKY/WX    TMP DP  RH WIND       PRES   REMARKS
HAVRE          MOSUNNY   82  30  15 NW20G26   29.67F
LEWISTOWN      MOSUNNY   74  33  22 NW10      29.76F
N BAR RANCH      N/A     75  34  22 NW15G22   29.80F
CHINOOK          N/A     79  39  24 W7        29.67S
FORT BENTON      N/A    N/A N/A N/A CALM      29.71F
$$

MTZ017>020-022>027-061-062-282000-
NORTHEAST MONTANA

CITY           SKY/WX    TMP DP  RH WIND       PRES   REMARKS
GLASGOW        MOSUNNY   69  42  37 E24G31    29.69F
JORDAN           N/A     81  49  32 SW13G20   29.67F
SIDNEY         SUNNY     78  39  24 E6        29.72F HAZE
WOLF POINT     LGT RAIN  68  44  42 N22G33    29.72F
MALTA          SUNNY     79  46  31 E12G18    29.66F
PLENTYWOOD       N/A     73  37  27 NW5       29.75S
POPLAR           N/A     72  39  30 NW21G31   29.73S
$$

MTZ028>42-056>058-282000-
SOUTHCENTRAL AND SOUTHEAST MONTANA

CITY           SKY/WX    TMP DP  RH WIND       PRES   REMARKS
BAKER          SUNNY     79  33  19 VRB5      29.77F
BILLINGS       PTSUNNY   79  39  23 NW10      29.74F
LIVINGSTON     MOSUNNY   71  44  37 SW14G22   29.81F
MILES CITY     SUNNY     80  48  32 SW12G17   29.71F
BIG TIMBER     MOSUNNY   72  43  35 W13G21    29.82S
LAUREL           N/A     77  40  26 W13       29.77R
ROUNDUP          N/A     80  36  20 W16       29.67F
$$

REGIONAL REPORTS...DAKOTAS

CITY           SKY/WX    TMP DP  RH WIND       PRES   REMARKS
WILLISTON      MOSUNNY   82  40  22 NE8       29.73S
MINOT          MOSUNNY   78  48  34 N18G25    29.67S
DICKINSON      PTSUNNY   81  33  17 NW12      29.73S
BEACH            N/A     75  27  16 CALM      29.79F
CROSBY           N/A     75  45  33 NW7G13    29.72S
TIOGA            N/A     73  43  33 N8G17     29.73F
WATFORD CITY     N/A     75  41  29 NE5G14    29.72S
BISMARCK       SUNNY     77  47  34 NW16G23   29.70R
GRAND FORKS    CLOUDY    62  62 100 N10       29.55R
FARGO          CLOUDY    66  62  87 NW16      29.50R
BUFFALO SD       N/A     81  31  16 N10G17    29.71F
RAPID CITY     SUNNY     79  48  33 MISG      29.79S
$$

REGIONAL REPORTS...WYOMING/IDAHO/WASHINGTON

CITY           SKY/WX    TMP DP  RH WIND       PRES   REMARKS
GILLETTE       MOSUNNY   77  48  35 VRB3      29.80F
SHERIDAN       MOSUNNY   77  43  29 CALM      29.77F
BUFFALO WY     SUNNY     75  45  34 SE5       29.82F
CODY           MOSUNNY   75  38  26 SW17G24   29.83F
YELLOWSTONE LA   N/A     54  41  61 VRB6      30.05S
IDAHO FALLS    CLOUDY    65  49  56 SE10      29.93F
SALMON         PTSUNNY   68  48  49 NW7       29.83F
BOISE          SUNNY     79  37  22 N13G20    29.88S
SPOKANE        MOSUNNY   70  44  39 SW10      29.87R
$$

REGIONAL REPORTS...ALBERTA

CITY           SKY/WX    TMP DP  RH WIND       PRES   REMARKS
EDMONTON       PTSUNNY   57  50  77 CALM      29.66R
CALGARY        PTSUNNY   61  45  55 N16G24    29.76R
LETHBRIDGE     MOSUNNY   75  32  20 NW9G22    29.68F
MEDICINE HAT   MOSUNNY   73  46  38 SW5       29.66S
ONEFOUR          N/A     75  34  22 W12G21      N/A
$$

REGIONAL REPORTS...SASKATCHEWAN

CITY           SKY/WX    TMP DP  RH WIND       PRES   REMARKS
SWIFT CURRENT  MOSUNNY   70  43  37 SE8G17    29.71S
REGINA         MOSUNNY   70  50  49 NW8       29.73R
SASKATOON      MOSUNNY   68  46  45 NW14G26   29.69S
CYPRESS HILLS    N/A     68  41  37 NW7         N/A
VAL MARIE        N/A     73  43  33 S20G26      N/A
ROCKGLEN         N/A     61  50  67 S15G22      N/A
$$



USA.gov is the U.S. government's official web portal to all federal, state and local government web resources and services.